Location: Arroyo de Valdeoliva
(40.1604°N, 4.9878°W)
Time: 08:00:27
(UTC+00:00)

Cosmos 1825 Rocket - Pass Details

Date: 17 March 2026
Orbit: 596 x 624 km, 82.5° (Epoch: 18 April)

Event Time Altitude Azimuth Distance (km) Brightness Sun altitude
Rises 18:55:57 0° 197° (SSW) 2,884 7.2 -6.0°
Reaches altitude 10° 18:58:12 10° 201° (SSW) 1,985 6.4 -6.4°
Maximum altitude 19:02:31 56° 280° (W) 746 4.4 -7.3°
Drops below altitude 10° 19:06:53 10° 359° (N) 2,003 6.3 -8.1°
Sets 19:09:10 0° 4° (N) 2,913 7.0 -8.5°
